Wisconsin Dells, Wisconsin, United States (53965)
Lat: 43.63N, Lon: 89.77W
Wx Zone: WIZ057
Local Info
Past Weather Observations for Sunday, July 24, 2016

NOTE: This archive is for the closest National Weather Service station to Wisconsin Dells. Information may differ from the station used for current weather conditions.

Click here for Long-term Archive

Time Weather Temperature Dewpoint Humidity Pressure Winds Precip Visibility
23:50
Clear
70°F / 21°C 64°F / 18°C 83% 29.98 in
(1015 mb)
W 3.5 mph
(W 6 kph)
- 10SM
23:30
Clear
70°F / 21°C 64°F / 18°C 83% 29.98 in
(1015 mb)
W 4.6 mph
(W 7 kph)
- 10SM
23:10
Clear
70°F / 21°C 63°F / 17°C 78% 29.95 in
(1014 mb)
W 5.8 mph
(W 9 kph)
- 10SM
22:50
Clear
70°F / 21°C 63°F / 17°C 78% 29.95 in
(1014 mb)
SSW 3.5 mph
(SSW 6 kph)
- 10SM
22:30
Clear
70°F / 21°C 64°F / 18°C 83% 29.95 in
(1014 mb)
W 4.6 mph
(W 7 kph)
- 10SM
22:10
Clear
70°F / 21°C 64°F / 18°C 83% 29.95 in
(1014 mb)
W 3.5 mph
(W 6 kph)
- 10SM
21:50
Clear
70°F / 21°C 64°F / 18°C 83% 29.95 in
(1014 mb)
Calm - 10SM
21:30
Clear
72°F / 22°C 64°F / 18°C 78% 29.95 in
(1014 mb)
Calm - 10SM
21:10
Clear
72°F / 22°C 64°F / 18°C 78% 29.92 in
(1013 mb)
WNW 4.6 mph
(WNW 7 kph)
- 10SM
20:50
Clear
73°F / 23°C 64°F / 18°C 74% 29.92 in
(1013 mb)
W 4.6 mph
(W 7 kph)
- 10SM
20:30
Clear
75°F / 24°C 64°F / 18°C 69% 29.92 in
(1013 mb)
W 4.6 mph
(W 7 kph)
- 10SM
20:10
Clear
73°F / 23°C 64°F / 18°C 74% 29.92 in
(1013 mb)
Calm - 10SM
19:50
Clear
73°F / 23°C 66°F / 19°C 78% 29.92 in
(1013 mb)
SSW 4.6 mph
(SSW 7 kph)
- 10SM
19:30
Clear
75°F / 24°C 64°F / 18°C 69% 29.89 in
(1012 mb)
Calm - 10SM
19:10
Clear
77°F / 25°C 64°F / 18°C 65% 29.89 in
(1012 mb)
WNW 3.5 mph
(WNW 6 kph)
- 10SM
18:50
Clear
79°F / 26°C 64°F / 18°C 61% 29.89 in
(1012 mb)
WNW 6.9 mph
(WNW 11 kph)
- 10SM
18:30
Clear
79°F / 26°C 66°F / 19°C 65% 29.89 in
(1012 mb)
NW 4.6 mph
(NW 7 kph)
- 10SM
18:10
Clear
81°F / 27°C 66°F / 19°C 62% 29.89 in
(1012 mb)
NW 5.8 mph
(NW 9 kph)
- 10SM
17:50
Clear
82°F / 28°C 66°F / 19°C 58% 29.89 in
(1012 mb)
NW 6.9 mph
(NW 11 kph)
- 10SM
17:30
Clear
84°F / 29°C 64°F / 18°C 51% 29.89 in
(1012 mb)
NW 10.4 mph
(NW 17 kph)
- 10SM
17:10
Clear
82°F / 28°C 64°F / 18°C 55% 29.89 in
(1012 mb)
W 8.1 mph
(W 13 kph)
- 10SM
16:50
Clear
84°F / 29°C 64°F / 18°C 51% 29.89 in
(1012 mb)
W 9.2 mph
(W 15 kph)
- 10SM
16:30
Clear
86°F / 30°C 63°F / 17°C 46% 29.89 in
(1012 mb)
W 10.4 mph
(W 17 kph)
- 10SM
16:10
Clear
86°F / 30°C 64°F / 18°C 49% 29.89 in
(1012 mb)
W 10.4 mph
(W 17 kph)
- 10SM
15:50
Clear
86°F / 30°C 68°F / 20°C 55% 29.86 in
(1011 mb)
WNW 10.4 mph
(WNW 17 kph)
- 10SM
15:30
Clear
88°F / 31°C 70°F / 21°C 55% 29.86 in
(1011 mb)
W 9.2 mph
(W 15 kph)
- 10SM
15:10
Clear
88°F / 31°C 70°F / 21°C 55% 29.86 in
(1011 mb)
NW 9.2 mph
(NW 15 kph)
- 10SM
14:50
Partly Cloudy
88°F / 31°C 70°F / 21°C 55% 29.83 in
(1010 mb)
WNW 11.5 mph
(WNW 19 kph)
- 10SM
14:30
Partly Cloudy
88°F / 31°C 70°F / 21°C 55% 29.86 in
(1011 mb)
NW 9.2 mph
(NW 15 kph)
- 10SM
14:10
Partly Cloudy
88°F / 31°C 72°F / 22°C 59% 29.83 in
(1010 mb)
W 11.5 mph
(W 19 kph)
- 10SM
13:50
Mostly Cloudy
86°F / 30°C 73°F / 23°C 66% 29.83 in
(1010 mb)
WNW 6.9 mph
(WNW 11 kph)
- 10SM
13:30
Partly Cloudy
86°F / 30°C 75°F / 24°C 70% 29.86 in
(1011 mb)
W 10.4 mph
(W 17 kph)
- 10SM
13:10
Overcast
86°F / 30°C 75°F / 24°C 70% 29.86 in
(1011 mb)
SSW 10.4 mph
(SSW 17 kph)
- 10SM
12:50
Overcast
84°F / 29°C 77°F / 25°C 79% 29.86 in
(1011 mb)
SSW 10.4 mph
(SSW 17 kph)
- 10SM
12:30
Overcast
84°F / 29°C 77°F / 25°C 79% 29.86 in
(1011 mb)
SSW 9.2 mph
(SSW 15 kph)
- 10SM
12:10
Overcast
82°F / 28°C 77°F / 25°C 84% 29.83 in
(1010 mb)
W 10.4 mph
(W 17 kph)
- 10SM
11:50
Overcast
82°F / 28°C 77°F / 25°C 84% 29.86 in
(1011 mb)
W 9.2 mph
(W 15 kph)
- 10SM
11:30
Mostly Cloudy
84°F / 29°C 77°F / 25°C 79% 29.83 in
(1010 mb)
W 6.9 mph
(W 11 kph)
- 10SM
11:10
Overcast
84°F / 29°C 77°F / 25°C 79% 29.83 in
(1010 mb)
SSW 9.2 mph
(SSW 15 kph)
- 10SM
10:50
Overcast
84°F / 29°C 79°F / 26°C 84% 29.83 in
(1010 mb)
SSW 9.2 mph
(SSW 15 kph)
- 10SM
10:30
Overcast
82°F / 28°C 77°F / 25°C 84% 29.83 in
(1010 mb)
SSW 9.2 mph
(SSW 15 kph)
- 10SM
10:10
Overcast
82°F / 28°C 77°F / 25°C 84% 29.83 in
(1010 mb)
SSW 9.2 mph
(SSW 15 kph)
- 10SM
09:50
Overcast
82°F / 28°C 77°F / 25°C 84% 29.83 in
(1010 mb)
SW 10.4 mph
(SW 17 kph)
- 10SM
09:30
Overcast
82°F / 28°C 77°F / 25°C 84% 29.83 in
(1010 mb)
SSW 8.1 mph
(SSW 13 kph)
- 10SM
09:10
Overcast
82°F / 28°C 77°F / 25°C 84% 29.83 in
(1010 mb)
SW 9.2 mph
(SW 15 kph)
- 10SM
08:50
Overcast
82°F / 28°C 77°F / 25°C 84% 29.83 in
(1010 mb)
SSW 10.4 mph
(SSW 17 kph)
- 10SM
08:30
Overcast
81°F / 27°C 77°F / 25°C 89% 29.8 in
(1009 mb)
SW 9.2 mph
(SW 15 kph)
- 10SM
08:10
Overcast
81°F / 27°C 75°F / 24°C 84% 29.8 in
(1009 mb)
SW 10.4 mph
(SW 17 kph)
- 10SM
07:50
Overcast
79°F / 26°C 75°F / 24°C 89% 29.83 in
(1010 mb)
SW 9.2 mph
(SW 15 kph)
- 10SM
07:30
Overcast
79°F / 26°C 75°F / 24°C 89% 29.8 in
(1009 mb)
SW 8.1 mph
(SW 13 kph)
- 7SM
07:10
Overcast
77°F / 25°C 73°F / 23°C 89% 29.83 in
(1010 mb)
SW 5.8 mph
(SW 9 kph)
- 7SM
06:50
Overcast
77°F / 25°C 73°F / 23°C 89% 29.83 in
(1010 mb)
SW 4.6 mph
(SW 7 kph)
- 7SM
06:30
Overcast
75°F / 24°C 73°F / 23°C 94% 29.83 in
(1010 mb)
SSW 3.5 mph
(SSW 6 kph)
- 7SM
06:10
Overcast
75°F / 24°C 72°F / 22°C 89% 29.83 in
(1010 mb)
SW 6.9 mph
(SW 11 kph)
- 7SM
05:50
Overcast
75°F / 24°C 72°F / 22°C 89% 29.83 in
(1010 mb)
SW 6.9 mph
(SW 11 kph)
- 10SM
05:30
Overcast
73°F / 23°C 72°F / 22°C 94% 29.83 in
(1010 mb)
Calm - 10SM
05:10
Overcast
73°F / 23°C 72°F / 22°C 94% 29.83 in
(1010 mb)
SSE 5.8 mph
(SSE 9 kph)
- 10SM
04:50
Overcast
73°F / 23°C 72°F / 22°C 94% 29.83 in
(1010 mb)
SSE 8.1 mph
(SSE 13 kph)
- 10SM
04:10
Overcast
73°F / 23°C 72°F / 22°C 94% 29.83 in
(1010 mb)
SSE 9.2 mph
(SSE 15 kph)
- 10SM
03:50
Overcast
73°F / 23°C 70°F / 21°C 89% 29.83 in
(1010 mb)
SSE 10.4 mph
(SSE 17 kph)
- 10SM
03:30
Overcast
73°F / 23°C 70°F / 21°C 89% 29.83 in
(1010 mb)
SSE 11.5 mph
(SSE 19 kph)
- 10SM
03:10
Overcast
73°F / 23°C 70°F / 21°C 89% 29.83 in
(1010 mb)
SSE 11.5 mph
(SSE 19 kph)
- 10SM
02:50
Overcast
73°F / 23°C 70°F / 21°C 89% 29.83 in
(1010 mb)
SSE 10.4 mph
(SSE 17 kph)
- 10SM
02:30
Overcast
72°F / 22°C 70°F / 21°C 94% 29.86 in
(1011 mb)
SW 9.2 mph
(SW 15 kph)
- 10SM
02:10
Overcast
72°F / 22°C 68°F / 20°C 88% 29.86 in
(1011 mb)
SSE 6.9 mph
(SSE 11 kph)
- 10SM
01:50
Mostly Cloudy
72°F / 22°C 68°F / 20°C 88% 29.86 in
(1011 mb)
S 8.1 mph
(S 13 kph)
- 10SM
01:30
Partly Cloudy
70°F / 21°C 68°F / 20°C 94% 29.86 in
(1011 mb)
S 8.1 mph
(S 13 kph)
- 10SM
01:10
Mostly Cloudy
72°F / 22°C 68°F / 20°C 88% 29.86 in
(1011 mb)
S 9.2 mph
(S 15 kph)
- 10SM
00:50
Mostly Cloudy
72°F / 22°C 68°F / 20°C 88% 29.89 in
(1012 mb)
S 9.2 mph
(S 15 kph)
- 10SM
00:30
Overcast
72°F / 22°C 68°F / 20°C 88% 29.89 in
(1012 mb)
S 9.2 mph
(S 15 kph)
- 10SM
00:10
Overcast
72°F / 22°C 68°F / 20°C 88% 29.89 in
(1012 mb)
SSE 9.2 mph
(SSE 15 kph)
- 10SM
Time Weather Temperature Dewpoint Humidity Pressure Winds Precip Visibility


Weather for websites

WeatherForYou.com, LLC is not responsible for any damages or problems caused by this service. Current weather conditions are obtained from the closest station including government and personal stations which may have varying degrees of accuracy. Weather forecasts are derived from the NOAA NDFD. Like all things, this site belongs to Jesus Christ... He just trusts us to maintain it. If you have any questions or comments email webmaster@weatherforyou.com

Copyright © 2016, WeatherForYou.com LLC. All rights reserved.